DW9727 Weather Reports


time (UTC)temp
F
wind
direction
speed
knots
gust
knots
rain 1hr
in
rain 24hr
in
rain mn
in
humidity
%
barometer
mb
20260906192710 85 123 6.1 10.4 0.00 0.03 0.03 63 1012.1
20260906191710 85 62 5.2 11.3 0.00 0.03 0.03 67 1012.2
20260906190711 86 35 4.3 8.7 0.00 0.03 0.03 65 1012.4
20260906184711 85 47 3.5 7.0 0.00 0.03 0.03 69 1012.3
20260906183711 85 55 2.6 7.0 0.00 0.03 0.03 68 1012.5
20260906182711 84 315 3.5 6.1 0.00 0.03 0.03 72 1012.8
20260906181711 83 316 3.5 5.2 0.00 0.03 0.03 72 1013.1
20260906180710 83 326 1.7 7.0 0.00 0.03 0.03 72 1013.2
20260906175710 82 302 1.7 6.1 0.00 0.03 0.03 74 1013.3
20260906174710 81 58 1.7 4.3 0.00 0.03 0.03 77 1013.3
20260906173710 81 82 2.6 4.3 0.00 0.03 0.03 75 1013.3
20260906172710 81 47 2.6 6.1 0.00 0.03 0.03 76 1013.3
20260906171711 80 59 1.7 7.8 0.00 0.03 0.03 75 1013.4
20260906170710 80 28 4.3 7.0 0.00 0.03 0.03 75 1013.2
20260906164710 80 60 2.6 5.2 0.00 0.03 0.03 78 1013.8
20260906162711 79 38 3.5 5.2 0.00 0.03 0.03 80 1013.7
20260906160710 78 110 2.6 5.2 0.00 0.03 0.03 83 1013.6
20260906155710 77 78 1.7 2.6 0.00 0.03 0.03 84 1013.7
20260906154710 77 78 2.6 7.8 0.00 0.03 0.03 86 1013.0
20260906153710 76 49 1.7 4.3 0.00 0.03 0.03 86 1013.0
20260906151710 75 103 0.9 1.7 0.00 0.03 0.03 89 1013.0
20260906150710 75 68 0.0 1.7 0.00 0.03 0.03 90 1013.1
20260906145710 75 68 0.9 1.7 0.01 0.03 0.03 90 1013.1
20260906144710 74 254 0.0 2.6 0.03 0.03 0.03 90 1012.9
20260906142710 74 328 0.9 2.6 0.03 0.03 0.03 89 1012.9
20260906141710 74 302 0.9 2.6 0.03 0.03 0.03 88 1012.8
20260906140710 75 302 0.0 0.9 0.03 0.03 0.03 88 1013.2
20260906134711 75 276 4.3 7.8 0.00 0.00 0.00 86 1013.4
20260906133711 75 223 2.6 10.4 0.00 0.00 0.00 85 1013.7
20260906125710 76 192 3.5 6.1 0.00 0.00 0.00 82 1013.0
20260906124711 76 237 1.7 6.1 0.00 0.00 0.00 83 1012.9
20260906123710 76 280 2.6 7.0 0.00 0.00 0.00 82 1012.9
20260906122711 77 265 1.7 11.3 0.00 0.00 0.00 81 1012.3
20260906121711 77 232 1.7 7.8 0.00 0.00 0.00 80 1012.3
20260906120711 77 139 1.7 4.3 0.00 0.00 0.00 80 1011.6
20260906115711 77 105 1.7 2.6 0.00 0.00 0.00 79 1011.6
20260906114711 77 140 1.7 2.6 0.00 0.00 0.00 79 1011.4
20260906111711 77 142 2.6 2.6 0.00 0.00 0.00 81 1011.1
20260906110711 76 102 2.6 2.6 0.00 0.00 0.00 81 1011.2
20260906105710 76 128 0.9 2.6 0.00 0.00 0.00 83 1011.1
20260906104711 76 128 0.9 1.7 0.00 0.00 0.00 84 1011.2
20260906103710 76 105 0.0 1.7 0.00 0.00 0.00 85 1011.1
20260906101711 75 89 0.9 2.6 0.00 0.00 0.00 87 1011.1
20260906100711 75 91 0.9 1.7 0.00 0.00 0.00 88 1011.4
20260906095711 75 74 0.9 2.6 0.00 0.00 0.00 88 1011.1
20260906094710 75 44 0.9 2.6 0.00 0.00 0.00 87 1011.0
20260906093710 76 101 0.0 1.7 0.00 0.00 0.00 87 1010.9
20260906092711 76 101 0.0 0.0 0.00 0.00 0.00 87 1010.8
20260906091710 76 83 0.0 0.0 0.00 0.00 0.00 87 1010.9
20260906090711 76 83 0.0 0.0 0.00 0.00 0.00 87 1010.7
20260906085711 76 83 0.0 0.9 0.00 0.00 0.00 87 1010.9
20260906084710 77 106 0.0 0.0 0.00 0.00 0.00 87 1010.9
20260906083710 77 107 0.0 0.0 0.00 0.00 0.00 87 1010.9
20260906082711 77 107 0.0 1.7 0.00 0.00 0.00 87 1011.0
20260906081711 77 108 0.0 1.7 0.00 0.00 0.00 87 1011.2
20260906080710 78 104 0.0 2.6 0.00 0.00 0.00 86 1011.2
20260906075711 78 74 0.9 1.7 0.00 0.00 0.00 86 1011.3
20260906074711 78 69 0.9 1.7 0.00 0.00 0.00 85 1011.2
20260906073710 79 50 0.9 2.6 0.00 0.00 0.00 85 1011.0
20260906070711 79 119 0.9 6.1 0.00 0.00 0.00 85 1011.1
20260906064711 79 125 3.5 8.7 0.00 0.00 0.00 85 1010.9
20260906063711 79 124 2.6 7.8 0.00 0.00 0.00 86 1011.0
20260906062710 79 120 4.3 7.8 0.00 0.00 0.00 87 1011.0
20260906061710 78 86 0.9 2.6 0.00 0.00 0.00 87 1011.2
20260906060710 78 115 1.7 5.2 0.00 0.00 0.00 87 1011.0
20260906055711 78 111 1.7 5.2 0.00 0.00 0.00 87 1011.1
20260906054711 78 109 1.7 6.1 0.00 0.00 0.00 87 1011.2
20260906053711 79 88 3.5 7.0 0.00 0.00 0.00 86 1011.2
20260906052711 79 89 1.7 6.1 0.00 0.00 0.00 86 1011.2
20260906045711 79 96 1.7 5.2 0.00 0.00 0.00 85 1011.2
20260906044710 80 70 2.6 4.3 0.00 0.00 0.00 85 1011.3
20260906043711 80 94 1.7 6.1 0.00 0.00 0.00 84 1011.2
20260906042711 80 78 2.6 6.1 0.00 0.00 0.00 84 1011.3
20260906041711 80 107 2.6 6.1 0.00 0.00 0.00 83 1011.2
20260906040711 80 78 2.6 7.0 0.00 0.00 0.00 83 1011.2
20260906035711 81 87 3.5 7.8 0.00 0.00 0.00 82 1011.1
20260906034711 81 78 3.5 7.8 0.00 0.00 0.00 81 1011.0
20260906033711 82 65 2.6 7.0 0.00 0.00 0.00 80 1011.0
20260906032710 82 102 1.7 6.1 0.00 0.00 0.00 80 1011.0
20260906031710 82 89 1.7 10.4 0.00 0.00 0.00 80 1011.0
20260906030711 82 91 3.5 7.8 0.00 0.00 0.00 80 1010.8
20260906025711 82 92 3.5 7.0 0.00 0.00 0.00 79 1010.9
20260906023711 82 106 1.7 6.1 0.00 0.00 0.00 79 1010.4
20260906022710 83 61 3.5 7.0 0.00 0.00 0.00 78 1010.3
20260906020710 84 86 2.6 7.0 0.00 0.00 0.00 78 1009.9
20260906015710 85 69 1.7 6.1 0.00 0.00 0.00 77 1009.7
20260906014711 85 52 1.7 4.3 0.00 0.00 0.00 76 1009.4
20260906013710 86 63 1.7 6.1 0.00 0.00 0.00 74 1009.3
20260906012711 87 94 2.6 4.3 0.00 0.00 0.00 73 1009.2
20260906011711 87 67 1.7 2.6 0.00 0.00 0.00 72 1008.9
20260906005710 89 61 1.7 2.6 0.00 0.00 0.00 69 1009.0
20260906004710 89 110 1.7 7.0 0.00 0.00 0.00 68 1009.0
20260906003711 90 122 3.5 7.0 0.00 0.00 0.00 67 1009.1
20260906002711 90 127 4.3 7.0 0.00 0.00 0.00 66 1009.1
20260906001710 90 139 5.2 10.4 0.00 0.00 0.00 66 1008.8
20260906000710 90 146 6.1 11.3 0.00 0.00 0.00 65 1008.6
20260905235710 91 139 6.1 8.7 0.00 0.00 0.00 66 1008.7
20260905234711 91 146 4.3 10.4 0.00 0.00 0.00 64 1008.6
20260905232710 92 147 6.1 10.4 0.00 0.00 0.00 62 1008.6
20260905231710 92 174 7.8 10.4 0.00 0.00 0.00 61 1008.5
20260905230711 92 172 9.6 15.6 0.00 0.00 0.00 60 1008.6
20260905224711 93 140 7.8 13.0 0.00 0.00 0.00 60 1008.5
20260905223711 92 163 9.6 15.6 0.00 0.00 0.00 60 1008.6
20260905222711 93 142 8.7 14.8 0.00 0.00 0.00 59 1008.6
20260905221711 93 173 10.4 14.8 0.00 0.00 0.00 59 1008.8
20260905215710 92 185 8.7 17.4 0.00 0.00 0.00 61 1009.0
20260905214711 92 135 7.8 13.9 0.00 0.00 0.00 62 1009.0
20260905213710 92 118 7.8 17.4 0.00 0.00 0.00 61 1009.0
20260905212711 92 173 9.6 15.6 0.00 0.00 0.00 61 1009.1
20260905211710 92 125 8.7 15.6 0.00 0.00 0.00 60 1009.3
20260905210710 92 183 11.3 18.2 0.00 0.00 0.00 59 1009.3
20260905205711 91 147 7.8 19.1 0.00 0.00 0.00 62 1009.4
20260905204711 91 136 9.6 17.4 0.00 0.00 0.00 62 1009.4
20260905203710 90 122 13.0 18.2 0.00 0.00 0.00 61 1009.5
20260905202710 90 114 11.3 19.1 0.00 0.00 0.00 62 1009.6
20260905201711 90 131 7.8 17.4 0.00 0.00 0.00 62 1010.1
20260905200711 90 107 7.8 17.4 0.00 0.00 0.00 63 1010.6
20260905195710 89 149 10.4 20.0 0.00 0.00 0.00 62 1010.7
20260905194711 89 107 9.6 17.4 0.00 0.00 0.00 62 1010.9
20260905193710 89 93 6.1 13.0 0.00 0.00 0.00 60 1011.2